    Observer details:
    046 Klet.  Observers J. Ticha, M. Tichy, Z. Moravec.  0.57-m f/5.2 reflector
        + CCD.
    104 San Marcello Pistoiese.  Observers L. Tesi, A. Boattini, M. Tombelli.
        Measurers G. Forti, L. Tesi, A. Boattini, M. Tombelli.  0.40-m f/5
        reflector + CCD.
    106 Crni Vrh.  Observer J. Skvarc.  0.36-m f/6.7 Schmidt-Cassegrain + CCD.
    118 Modra.  Observers A. Galad, L. Kornos, P. Koleny.  0.6-m f/5.5 reflector
        + CCD.
    344 Bohyunsan Optical Astronomy Observatory.  Observers H.-K. Moon, Y.-H. Park.
        Measurer M.-Y. Chun.  1.8-m f/8 reflector + CCD.
    402 Dynic Astronomical Observatory.  Observer A. Sugie.  0.60-m f/3.7 reflector
        + CCD.
    413 Siding Spring.  Observer R. H. McNaught.  1.0-m f/8 reflector + CCD.
    422 Loomberah.  Observer G. J. Garradd.  0.45-m f/5.4 reflector + CCD.
    557 Ondrejov.  Observer L. Sarounova.  0.65-m f/3.6 reflector + CCD.
    595 Farra d'Isonzo.  Observers G. Lombardi, E. Pettarin.  0.40-m f/4.5
        reflector + CCD.
    651 Grasslands Observatory, Tucson.  Observer J. E. McGaha.  0.62-m f/5.1
        reflector + CCD.
    658 Dominion Astrophysical Observatory.  Observer D. D. Balam.  1.82-m
        reflector + CCD.
    670 Camarillo.  Observer J. E. Rogers.  0.30-m f/6.7 Helin Telescope + CCD.
    704 Lincoln Laboratory ETS, New Mexico.  Observers M. Blythe, F. Shelly,
        M. Bezpalko, M. Elowitz, R. Huber.  Measurers J. Stuart, H. Viggh,
        R. Sayer, J. B. Evans.  1.0-m f/2.15 reflector + CCD.
    850 Cordell-Lorenz Observatory, Sewanee.  Observers D. T. Durig, J. L. Wilson.
        0.3-m f/5.75 Schmidt-Cassegrain + CCD.
    858 Tebbutt Observatory, Edgewood.  Observer F. B. Zoltowski.  0.3-m f/3.3
        Schmidt-Cassegrain + CCD.
    
    Orbital elements:
    2000 DM8
    Epoch 2000 Feb. 26.0 TT = JDT 2451600.5                 Williams
    M 260.11708              (2000.0)            P               Q
    n   0.54965740     Peri.  318.00672     +0.32136374     +0.84356559
    a   1.4759603      Node   323.43937     -0.55493774     -0.20040051
    e   0.5542452      Incl.   46.24525     -0.76731314     +0.49823361
    P   1.79           H   14.9           G   0.15
    From 92 observations 2000 Feb. 27-Mar. 2.
    
    Ephemeris:
    2000 DM8                 a,e,i = 1.48, 0.55, 46                  q = 0.6579
    Date    TT    R. A. (2000) Decl.     Delta      r     Elong.  Phase     V
    2000 02 26    08 05.75   +35 03.6    1.106    1.953   137.4    20.1    17.6
    2000 03 02    07 53.67   +33 25.9    1.127    1.929   131.1    22.8    17.7
    2000 03 07    07 43.59   +31 43.0    1.153    1.903   124.8    25.4    17.8
    2000 03 12    07 35.48   +29 58.2    1.185    1.877   118.7    27.7    17.9
    2000 03 17    07 29.25   +28 14.0    1.220    1.849   112.8    29.7    18.0
    2000 03 22    07 24.72   +26 31.9    1.258    1.821   107.2    31.5    18.0
    2000 03 27    07 21.72   +24 52.8    1.297    1.792   101.8    33.0    18.1
    2000 04 01    07 20.08   +23 17.2    1.337    1.761    96.8    34.3    18.2
    2000 04 06    07 19.63   +21 45.1    1.378    1.730    91.9    35.3    18.2
    2000 04 11    07 20.25   +20 16.2    1.417    1.698    87.4    36.1    18.3
    2000 04 16    07 21.78   +18 50.1    1.455    1.664    83.0    36.8    18.3
    2000 04 21    07 24.12   +17 26.2    1.491    1.630    78.9    37.2    18.3
    2000 04 26    07 27.16   +16 04.1    1.524    1.594    75.0    37.6    18.3
    2000 05 01    07 30.83   +14 43.0    1.554    1.558    71.3    37.8    18.3
    2000 05 06    07 35.06   +13 22.6    1.581    1.520    67.8    37.9    18.3
    2000 05 11    07 39.80   +12 02.0    1.604    1.482    64.5    37.9    18.3
    2000 05 16    07 44.99   +10 40.9    1.623    1.442    61.3    37.9    18.3
    
    Gareth V. Williams           (C) Copyright 2000 MPC           M.P.E.C. 2000-E12
    

    Read MPEC 2000-E11 Read MPEC 2000-E13


    MPEC number:

    Enter an MPEC number in one of the following forms:

    • 1997-B01 (the full form)
    • J97B01 (the packed version of the full form)
    • B01 (the abbreviated form)